Theta_e
320 320 319 318 317 315 311 310 309 309 308 306 306 307 308 308 308 309 313 317 315 318 329 331 337 339 343 347 352 353 359 360 354 356 353 351 353 349 353 354 353 353 349 343 342
315 316 315 314 315 316 315 311 310 309 309 308 306 307 308 308 308 317 317 315 312 318 329 334 337 337 343 345 351 352 359 355 351 351 354 352 352 351 354 353 353 351 346 343 343
311 309 310 311 311 312 313 313 310 309 309 308 307 307 309 308 319 319 318 311 311 318 333 333 331 336 339 342 350 350 356 350 349 351 352 351 353 350 353 356 353 348 345 343 343
305 305 306 306 307 308 310 311 310 309 309 308 307 308 309 309 327 331 319 313 311 318 334 330 330 334 333 336 344 351 352 348 347 346 351 354 353 353 353 354 353 349 345 343 343
306 307 307 307 307 307 307 308 309 308 308 308 307 309 308 320 319 322 318 317 311 327 332 328 330 331 330 332 338 348 349 346 345 346 350 353 351 352 353 354 353 350 344 343 342
308 308 309 309 308 308 308 308 307 307 307 308 307 309 313 320 320 321 318 316 318 330 330 327 328 328 329 331 336 337 348 345 344 343 349 350 351 352 353 354 353 348 344 343 342
309 309 309 309 309 309 308 308 307 306 307 307 308 309 319 318 323 324 324 320 324 329 328 326 326 326 328 331 333 339 349 346 342 341 347 351 353 355 353 354 351 347 344 342 341
311 310 310 310 310 309 309 307 306 306 307 307 310 315 322 317 323 326 326 323 324 327 325 324 324 325 328 331 332 340 346 348 345 342 345 352 356 354 353 353 350 347 344 343 341
312 312 312 311 310 309 307 306 307 306 306 310 313 323 320 317 324 326 324 323 324 324 324 323 323 325 329 333 336 339 348 346 347 344 347 354 358 353 353 353 350 347 344 344 343
312 313 312 311 309 307 307 313 309 309 310 312 323 321 324 319 323 325 323 322 322 323 323 322 323 326 330 335 337 340 347 345 348 347 347 356 359 355 353 353 352 348 346 346 345
314 313 312 309 307 306 314 317 323 323 318 321 320 322 322 321 323 323 323 322 322 323 326 323 324 326 328 329 334 336 344 346 344 346 347 351 354 358 354 353 354 352 349 348 348
312 311 309 313 313 314 317 321 318 319 321 317 319 320 322 323 324 323 324 325 325 324 324 326 326 326 327 329 330 335 340 344 343 345 344 349 352 352 354 354 352 353 352 350 348
313 310 310 314 314 315 319 317 317 317 320 320 318 319 322 323 323 323 323 325 325 324 324 326 327 327 326 329 332 337 339 342 344 339 339 339 345 348 348 350 354 353 352 349 346
310 310 312 315 316 318 318 317 317 317 323 320 319 319 321 321 321 323 323 324 326 325 325 326 326 326 326 333 334 335 336 339 338 339 343 339 345 348 348 349 352 353 353 350 347
316 309 313 314 318 319 317 317 316 317 324 318 318 320 320 320 320 322 322 324 327 326 326 326 326 326 328 332 332 332 332 337 336 336 339 339 340 344 348 350 352 350 352 351 349
316 316 313 316 315 317 317 317 317 320 323 319 319 321 321 320 320 323 323 323 325 328 327 327 325 327 328 330 332 334 333 336 336 336 337 337 338 344 345 347 346 348 350 351 350
316 317 316 316 319 317 317 319 321 323 322 320 319 320 321 320 321 321 324 322 325 327 330 329 329 327 329 332 333 335 335 335 334 336 336 334 334 345 343 342 341 340 348 349 351
317 317 319 318 319 318 320 323 325 324 322 320 319 319 319 320 321 321 322 323 324 327 329 329 329 328 330 333 334 334 335 334 334 333 333 333 339 343 341 341 343 344 346 348 349
317 321 321 319 318 319 322 326 325 321 320 320 320 319 319 320 321 322 323 324 324 326 328 328 328 325 327 331 331 334 335 332 332 332 331 337 341 339 341 343 344 346 349 350 347
318 322 320 319 318 320 324 321 321 319 319 319 320 320 321 320 321 322 324 323 323 323 324 327 327 324 324 325 327 329 332 334 332 335 333 336 340 341 343 344 344 347 350 349 351
320 321 320 319 319 321 323 321 320 318 318 320 321 320 320 320 321 321 322 321 321 323 323 325 327 324 323 325 326 329 331 333 332 332 334 336 340 339 342 341 344 345 344 345 347
320 322 318 318 322 321 322 320 316 318 318 320 319 320 321 320 321 322 322 322 320 322 325 324 325 325 324 324 325 326 329 332 333 333 331 333 335 337 339 338 343 341 339 339 340
319 319 317 319 322 320 318 317 317 319 319 319 319 318 320 321 322 322 321 318 320 322 325 324 324 327 325 324 324 325 326 328 330 330 333 333 337 336 338 337 340 339 339 336 336
319 321 318 318 318 320 319 318 316 315 317 317 317 320 320 321 322 322 320 318 318 319 315 320 323 325 326 327 324 325 325 326 327 330 331 332 337 338 338 338 338 336 336 335 335
317 318 319 321 318 318 318 317 316 317 316 317 319 320 321 322 322 322 321 319 319 316 321 323 323 323 324 322 324 325 325 324 325 327 329 335 337 336 335 335 335 334 333 332 331
319 318 317 318 318 318 315 318 317 316 318 317 318 318 320 323 322 323 322 322 322 320 322 322 324 324 322 320 320 322 322 321 322 324 327 334 333 331 328 327 328 328 328 328 328
317 317 318 316 319 319 318 318 317 317 316 316 317 318 318 318 318 318 319 319 321 322 322 322 324 324 323 322 320 320 321 321 321 322 324 331 330 327 327 324 325 325 324 324 324
Wind_Speed
13 13 13 12 12 12 12 11 9 9 9 9 9 9 10 9 9 11 15 10 15 13 19 16 17 15 14 15 15 12 3 2 7 10 13 12 7 3 6 7 5 6 19 31 32
14 15 14 14 14 13 13 12 10 9 9 10 10 9 9 9 10 16 15 17 15 17 19 22 20 17 17 14 8 7 1 2 7 3 15 21 15 14 4 10 13 14 29 32 31
14 14 14 14 14 14 14 12 12 9 8 9 9 8 7 6 9 9 16 15 17 20 17 19 16 17 18 13 13 8 2 3 7 16 14 15 15 10 10 8 16 24 33 33 30
14 14 14 13 13 13 13 13 12 11 9 8 8 7 5 5 2 2 9 14 18 21 18 19 18 19 15 13 13 6 17 4 9 6 12 16 17 10 7 4 15 21 30 33 30
13 12 13 13 13 13 13 13 13 12 10 8 7 6 4 7 10 10 8 13 20 23 22 20 20 19 14 14 10 8 4 4 7 6 13 15 15 11 8 7 14 21 30 30 27
15 15 14 13 13 13 13 13 13 12 10 9 6 5 4 14 3 7 8 19 23 22 22 20 17 17 11 10 11 16 11 5 4 11 12 15 13 12 10 11 16 25 31 29 26
15 16 17 16 14 13 13 13 12 11 9 9 6 5 10 2 2 6 12 18 21 20 21 19 13 12 11 9 14 5 8 10 8 11 13 17 12 10 13 15 18 26 30 27 24
17 15 15 16 16 14 13 12 11 9 8 7 6 4 8 9 7 11 14 15 18 18 16 15 12 16 10 7 13 13 13 12 10 12 10 5 11 16 16 17 20 25 28 25 24
16 15 15 14 14 13 11 7 4 4 6 7 3 8 9 6 14 14 15 17 17 16 14 13 11 17 14 11 14 14 14 13 13 14 14 10 12 20 18 18 19 24 27 24 23
16 14 13 13 12 8 2 3 6 7 7 7 4 8 11 16 18 17 16 16 17 16 12 14 12 14 13 14 16 18 17 17 12 10 11 17 20 17 18 19 19 22 25 23 24
14 13 12 9 5 3 11 4 2 4 12 9 11 8 8 20 19 17 17 18 18 16 15 20 13 17 20 21 20 17 20 15 12 15 12 10 13 21 19 16 18 16 20 20 23
12 9 6 4 5 8 4 6 5 5 8 16 6 6 5 21 20 19 19 17 17 16 21 13 18 16 15 16 19 15 21 14 13 9 9 16 19 16 19 24 21 20 22 23 23
11 7 4 7 6 4 1 3 4 5 8 15 14 16 14 19 21 23 22 20 17 19 21 15 15 16 13 14 13 17 16 13 15 8 16 14 14 11 12 14 31 23 21 25 24
11 5 6 4 1 1 2 4 6 4 6 12 13 12 18 19 16 21 23 18 12 18 17 16 10 17 13 15 17 18 16 10 12 15 12 15 9 19 20 16 12 18 22 23 27
11 6 4 3 3 7 4 5 5 4 6 12 16 14 17 23 18 18 23 20 15 15 11 17 12 13 16 17 16 11 15 3 14 14 11 16 8 8 21 18 16 20 20 24 32
8 7 0 2 5 5 7 7 4 8 1 8 10 13 19 21 13 24 23 15 12 14 13 16 13 13 18 16 16 5 13 9 9 14 14 12 14 12 8 12 4 18 21 22 25
6 9 4 3 7 8 7 7 8 3 4 8 13 17 20 15 15 16 20 16 12 13 12 13 10 17 14 17 14 11 15 11 11 11 11 16 16 11 10 7 2 11 23 20 26
7 8 6 7 8 6 6 12 2 12 7 7 4 18 18 17 14 18 18 17 13 15 13 12 14 12 13 17 12 17 20 12 12 13 14 17 9 9 10 10 8 7 5 23 19
8 4 3 7 7 6 13 7 7 3 5 7 11 16 11 14 10 16 12 14 8 6 8 14 11 7 6 14 5 18 20 23 12 14 14 13 19 12 12 12 13 14 8 9 19
6 8 2 7 6 10 14 3 7 7 3 8 11 6 11 11 12 16 11 4 3 5 12 6 11 13 10 8 14 13 15 19 9 13 18 16 17 13 14 13 12 14 25 22 18
6 8 3 5 5 17 4 10 6 7 7 6 6 7 10 15 16 12 8 6 3 8 9 10 5 11 6 15 16 12 13 20 13 15 13 11 10 19 14 14 14 24 19 17 18
6 4 8 3 13 4 8 4 1 5 3 3 4 11 1 4 2 3 6 7 3 8 10 4 7 12 17 5 6 11 13 16 11 19 13 4 10 14 16 18 24 20 16 18 20
4 7 6 7 4 6 6 9 10 3 5 3 2 4 4 2 2 4 6 4 4 3 3 2 9 6 6 8 9 11 10 12 18 17 14 15 12 10 17 16 20 21 17 16 17
6 1 6 7 6 4 3 4 6 4 8 7 4 5 6 6 2 5 7 3 5 5 4 5 12 9 4 9 15 18 7 12 13 11 12 8 24 19 16 16 17 18 16 16 17
8 5 4 7 9 7 4 2 3 5 5 1 2 3 4 3 3 4 7 8 4 2 3 5 9 5 3 6 7 10 14 7 15 16 9 20 20 17 16 13 14 17 14 15 16
5 3 6 6 2 3 3 8 7 5 3 6 5 2 3 3 7 7 2 3 3 2 1 3 4 9 7 1 1 6 7 5 6 2 7 23 17 15 14 15 12 12 12 13 14
5 4 5 3 0 7 8 6 5 3 7 6 4 4 7 6 6 6 5 2 3 4 3 5 5 7 12 6 6 11 13 11 9 5 9 13 18 14 11 9 9 10 11 11 12
Wind_Direction
322 317 314 311 310 309 306 303 301 296 293 288 283 285 282 268 258 252 242 230 226 199 176 173 184 196 199 221 227 257 299 319 81 135 143 167 135 129 237 180 147 132 141 146 148
320 316 314 311 307 301 301 299 294 292 287 286 283 284 286 278 271 252 240 221 219 190 179 182 187 189 199 212 232 238 202 78 115 60 148 169 148 159 225 174 145 125 134 147 150
321 318 313 309 304 302 297 294 292 285 281 278 279 284 284 277 290 249 224 220 198 188 181 186 189 192 219 221 216 219 260 96 92 97 139 163 150 159 179 170 144 136 145 153 154
324 322 318 314 310 304 298 293 288 282 272 270 273 277 269 226 245 162 199 200 185 173 186 191 194 202 228 213 219 254 233 120 91 84 103 156 148 158 177 186 143 149 154 156 158
331 328 324 321 317 310 301 292 286 280 269 256 257 268 225 233 252 276 218 189 179 179 193 193 198 206 218 210 189 227 199 157 135 132 113 143 158 117 155 134 139 151 158 160 160
329 326 323 319 313 307 303 293 281 274 263 251 229 243 220 247 273 264 184 178 178 182 192 195 199 210 261 240 207 186 240 177 178 135 147 135 138 150 117 124 141 155 160 163 163
321 321 321 316 311 308 302 291 279 266 251 241 215 199 240 209 180 165 169 173 177 184 190 196 205 203 226 215 223 233 229 220 210 166 153 154 150 129 136 142 146 158 163 165 164
321 319 315 312 312 310 305 297 280 254 231 212 203 186 263 199 184 171 161 173 183 184 194 195 208 216 248 213 188 227 222 201 174 162 142 146 183 127 143 144 152 162 166 168 168
324 321 316 315 314 313 310 308 284 203 187 168 156 200 226 195 175 173 173 170 176 184 189 189 210 213 208 219 207 211 198 222 155 187 159 146 195 144 150 153 160 168 170 173 173
327 325 322 320 318 317 350 93 107 114 149 159 245 216 220 190 172 173 169 171 171 168 175 198 213 207 220 212 202 194 214 194 168 172 198 136 124 140 152 155 171 171 178 181 178
330 331 330 335 341 104 128 74 149 160 207 222 185 262 153 164 164 176 179 178 183 190 201 197 211 208 201 210 230 206 228 198 167 151 205 142 119 138 153 160 168 186 182 187 195
351 349 352 57 82 129 80 272 12 342 250 223 206 246 152 160 167 178 174 182 195 202 216 185 218 211 227 214 238 245 216 199 128 150 248 151 159 136 163 158 169 185 196 190 194
2 9 83 114 102 122 334 351 333 318 252 172 204 200 192 184 183 178 188 204 198 209 207 210 206 227 217 205 211 232 217 188 158 172 244 159 139 155 168 181 164 179 192 189 186
18 30 131 152 145 184 219 317 321 293 262 143 190 207 182 189 203 185 197 209 206 219 203 231 219 205 205 195 216 205 235 181 192 191 203 219 179 171 163 167 190 178 185 184 183
27 51 131 271 235 259 279 308 292 246 246 152 164 170 184 200 134 176 194 214 240 220 200 212 195 200 205 216 204 234 211 243 173 216 200 185 226 175 156 171 174 181 184 182 181
22 35 277 290 267 274 289 292 267 232 151 143 145 193 172 212 159 159 191 228 241 230 202 242 210 192 210 213 192 262 160 210 210 233 242 195 227 182 124 113 144 176 185 193 170
327 348 340 255 296 288 280 242 222 282 250 153 177 181 188 186 161 171 191 196 213 202 192 218 223 197 226 201 186 183 191 187 202 215 224 208 209 85 97 96 181 198 176 196 177
311 324 323 333 301 280 246 240 294 310 29 357 210 182 198 167 177 179 187 200 219 249 185 198 184 177 207 232 177 203 208 198 189 205 203 185 154 111 103 104 78 94 186 179 204
318 322 343 331 293 247 258 323 173 22 342 293 216 204 189 172 181 183 192 200 184 258 308 183 160 115 238 237 273 198 234 234 274 200 214 120 100 118 115 109 112 100 84 132 185
324 260 354 333 301 261 257 143 81 8 295 266 246 172 183 167 214 199 179 33 135 237 286 270 130 188 173 250 244 266 220 240 241 238 208 150 159 136 139 108 90 86 57 37 36
279 253 37 329 284 261 18 60 74 54 331 341 325 171 253 186 204 193 159 83 275 289 288 304 197 168 170 206 206 213 241 235 231 256 213 154 112 118 119 118 109 70 55 51 44
295 299 354 298 260 0 47 35 270 47 45 69 35 357 272 114 295 125 145 29 319 301 237 292 274 162 202 80 314 295 230 235 239 227 267 315 99 121 131 122 99 86 74 58 50
336 39 17 288 295 102 124 98 46 75 36 66 86 22 321 324 98 97 122 71 2 346 12 355 259 150 182 187 210 237 216 268 233 262 236 252 138 146 120 108 102 108 101 81 70
310 241 81 51 28 69 113 93 112 62 77 88 112 166 186 201 177 155 141 120 73 51 328 285 262 277 8 275 194 212 219 235 270 241 250 258 138 154 130 121 115 102 89 80 72
349 51 7 14 48 53 56 17 127 103 87 105 114 207 244 172 158 150 137 149 149 94 247 303 262 267 61 6 339 179 199 206 243 257 312 129 135 136 127 109 100 107 93 82 71
0 11 95 64 353 149 132 47 80 85 338 84 94 118 206 181 329 147 178 236 113 156 270 262 212 288 212 259 255 247 201 217 281 336 259 111 108 101 122 123 108 99 91 77 63
49 63 312 187 229 52 35 42 71 69 62 56 44 117 122 61 18 28 2 22 59 284 201 261 247 222 256 181 259 245 237 211 216 212 305 166 142 142 130 121 115 102 82 68 59